Tracking 28052 objects as of 24-Sep-2023
HD Live streaming from Space Station
objects crossing your sky now

STARLINK-1940

Track STARLINK-1940 now!
10-day predictions
STARLINK-1940 is classified as:


NORAD ID: 47552
Int'l Code: 2021-009E
Perigee: 553.8 km
Apogee: 554.9 km
Inclination: 53.1 °
Period: 95.6 minutes
Semi major axis: 6925 km
RCS: Unknown
Launch date: February 4, 2021
Source: United States (US)
Launch site: AIR FORCE EASTERN TEST RANGE (AFETR)
Your satellite tracking list
Your tracking list is empty




NASA's NSSDC Master Catalog

Two Line Element Set (TLE):
1 47552U 21009E   23267.48051333 -.00000776  00000-0 -33208-4 0  9994
2 47552  53.0545  79.3480 0000824  82.6754 277.4329 15.06409720145709
Source of the keplerian elements: AFSPC